Location: Unspecified
(43.3116°N, 2.0147°W)
Time: 08:15:50
(UTC+02:00)

Okean 3 - Pass Details

Date: 07 July 2022
Orbit: 573 x 599 km, 82.5° (Epoch: 09 August)

Event Time Altitude Azimuth Distance (km) Brightness Sun altitude
Rises 05:29:13 0° 11° (N) 2,812 8.0 -10.2°
Reaches altitude 10° 05:32:37 10° 40° (NE) 1,900 7.7 -9.7°
Maximum altitude 05:34:32 13° 68° (ENE) 1,716 7.0 -9.5°
Drops below altitude 10° 05:36:26 10° 95° (E) 1,887 6.7 -9.2°
Sets 05:39:46 0° 124° (SE) 2,775 7.1 -8.8°
